DW5582 Weather Reports


Display with metric or nautical units.
time (UTC)temp
F
wind
direction
speed
MPH
gust
MPH
rain 1hr
in
rain 24hr
in
rain mn
in
humidity
%
barometer
mb
20260904204519 58 284 1.0 4.0 0.00 0.07 0.07 84 1019.9
20260904203017 58 284 2.0 6.0 0.00 0.07 0.07 83 1019.8
20260904201523 58 275 0.0 6.0 0.00 0.07 0.07 82 1019.7
20260904200031 59 274 0.0 6.0 0.00 0.07 0.07 82 1019.5
20260904194533 59 265 3.0 10.0 0.00 0.07 0.07 81 1019.2
20260904193010 60 303 3.0 12.0 0.00 0.07 0.07 81 1019.1
20260904191519 60 296 4.0 12.0 0.00 0.07 0.07 81 1018.8
20260904190024 61 247 3.0 11.0 0.00 0.07 0.07 80 1018.8
20260904184531 61 298 2.0 16.0 0.00 0.07 0.07 79 1018.6
20260904183034 61 295 4.0 18.0 0.00 0.07 0.07 78 1018.5
20260904181515 62 281 5.0 10.0 0.00 0.07 0.07 78 1018.5
20260904180021 62 262 6.0 13.0 0.00 0.07 0.07 78 1018.3
20260904174529 62 285 4.0 12.0 0.00 0.07 0.07 78 1018.1
20260904173030 62 284 3.0 15.0 0.00 0.07 0.07 77 1018.1
20260904171542 62 309 6.0 15.0 0.00 0.07 0.07 77 1018.0
20260904170018 62 284 9.0 18.0 0.00 0.07 0.07 77 1017.9
20260904164526 62 267 8.0 19.0 0.00 0.07 0.07 77 1017.9
20260904163033 63 252 6.0 15.0 0.00 0.07 0.07 77 1017.7
20260904161532 63 284 7.0 13.0 0.00 0.07 0.07 76 1017.7
20260904160036 63 257 6.0 15.0 0.00 0.07 0.07 75 1017.8
20260904154520 63 259 7.0 22.0 0.00 0.07 0.07 75 1017.6
20260904153031 64 306 6.0 21.0 0.00 0.07 0.07 75 1017.5
20260904151531 64 303 8.0 19.0 0.00 0.07 0.07 75 1017.6
20260904150040 64 260 8.0 18.0 0.00 0.07 0.07 75 1017.5
20260904144534 64 225 9.0 16.0 0.00 0.07 0.07 74 1017.3
20260904143031 65 279 7.0 16.0 0.00 0.07 0.07 73 1017.3
20260904141504 65 273 9.0 18.0 0.00 0.07 0.07 73 1017.1
20260904140008 65 286 7.0 16.0 0.00 0.07 0.07 73 1016.9
20260904134511 65 285 6.0 12.0 0.00 0.07 0.07 74 1016.9
20260904133026 64 302 3.0 14.0 0.00 0.07 0.07 73 1016.8
20260904131523 64 302 7.0 18.0 0.00 0.07 0.07 71 1016.7
20260904130005 64 269 8.0 16.0 0.00 0.07 0.07 76 1016.6
20260904124508 64 306 9.0 16.0 0.00 0.07 0.07 75 1016.2
20260904123014 63 286 4.0 19.0 0.00 0.07 0.07 74 1016.4
20260904121523 64 309 8.0 23.0 0.00 0.07 0.07 72 1016.2
20260904120026 64 249 8.0 17.0 0.00 0.07 0.07 73 1015.9
20260904114506 64 253 3.0 18.0 0.00 0.07 0.07 76 1015.6
20260904113021 64 290 11.0 24.0 0.00 0.07 0.07 77 1015.5
20260904111520 64 283 5.0 18.0 0.00 0.07 0.07 79 1015.3
20260904110027 64 262 9.0 21.0 0.00 0.07 0.07 80 1015.2
20260904104533 64 270 5.0 20.0 0.00 0.07 0.07 84 1014.9
20260904103010 64 302 7.0 17.0 0.00 0.07 0.07 86 1015.0
20260904101518 64 294 4.0 19.0 0.00 0.07 0.07 88 1014.7
20260904100023 63 277 5.0 18.0 0.00 0.07 0.07 89 1014.5
20260904094534 63 289 6.0 16.0 0.00 0.07 0.07 91 1014.6
20260904093029 62 244 9.0 18.0 0.00 0.07 0.07 92 1014.7
20260904091512 62 248 6.0 16.0 0.00 0.07 0.07 93 1014.2
20260904090019 62 309 6.0 14.0 0.00 0.07 0.07 93 1014.0
20260904084525 61 290 9.0 17.0 0.00 0.07 0.07 93 1013.7
20260904083029 61 305 10.0 20.0 0.00 0.07 0.07 93 1014.1
20260904081530 62 292 10.0 20.0 0.00 0.07 0.07 93 1013.8
20260904080032 61 295 8.0 19.0 0.00 0.07 0.07 93 1013.6
20260904074526 62 285 7.0 16.0 0.00 0.07 0.07 93 1013.4
20260904073049 62 284 8.0 19.0 0.00 0.06 0.06 93 1013.3
20260904071541 62 296 7.0 21.0 0.00 0.06 0.06 93 1013.2
20260904070031 62 289 5.0 21.0 0.00 0.06 0.06 93 1013.0
20260904064520 62 277 7.0 19.0 0.01 0.06 0.06 93 1012.8
20260904063025 63 288 9.0 22.0 0.02 0.06 0.06 92 1012.8
20260904061532 63 278 10.0 24.0 0.03 0.05 0.05 92 1012.5
20260904060035 63 300 8.0 21.0 0.03 0.05 0.05 92 1012.3
20260904054530 64 291 7.0 20.0 0.03 0.04 0.04 91 1012.1
20260904053025 65 290 12.0 30.0 0.03 0.03 0.03 90 1011.8
20260904051534 67 242 8.0 16.0 0.02 0.02 0.02 91 1010.8
20260904050035 67 252 5.0 19.0 0.01 0.01 0.01 90 1011.0
20260904044512 67 217 10.0 23.0 0.00 0.00 0.00 90 1011.1
20260904043018 67 243 7.0 25.0 0.00 0.00 0.00 89 1011.1
20260904041526 67 237 7.0 23.0 0.00 0.00 0.00 89 1011.0
20260904040032 67 258 6.0 19.0 0.00 0.00 0.00 90 1011.1
20260904034533 67 231 6.0 17.0 0.00 0.00 0.00 89 1011.2
20260904033014 67 216 7.0 22.0 0.00 0.00 0.00 90 1011.3
20260904031521 67 238 11.0 25.0 0.00 0.00 0.00 90 1011.6
20260904030028 67 263 10.0 25.0 0.00 0.00 0.00 90 1011.5
20260904024530 67 223 11.0 26.0 0.00 0.00 0.00 90 1011.7
20260904023024 67 201 9.0 21.0 0.00 0.00 0.00 90 1012.1
20260904021532 67 225 12.0 22.0 0.00 0.00 0.00 89 1012.5
20260904020024 68 254 5.0 18.0 0.00 0.00 0.00 88 1012.7
20260904014529 67 166 8.0 19.0 0.00 0.00 0.00 87 1012.8
20260904013032 67 263 7.0 21.0 0.00 0.00 0.00 87 1012.8
20260904011521 67 218 8.0 21.0 0.00 0.00 0.00 87 1012.9
20260904010020 67 254 9.0 19.0 0.00 0.00 0.00 86 1013.0
20260904004530 67 199 8.0 18.0 0.00 0.00 0.00 86 1013.1
20260904003033 67 186 8.0 18.0 0.00 0.00 0.00 86 1013.3
20260904001531 67 254 8.0 18.0 0.00 0.00 0.00 86 1013.4
20260904000043 67 205 7.0 17.0 0.00 0.00 0.00 85 1013.6
20260903234524 67 247 6.0 15.0 0.00 0.00 0.00 85 1013.8
20260903233030 67 221 5.0 17.0 0.00 0.00 0.00 85 1014.2
20260903231531 67 232 5.0 15.0 0.00 0.00 0.00 84 1014.3
20260903230034 67 232 7.0 20.0 0.00 0.00 0.00 85 1014.5
20260903224537 67 229 10.0 20.0 0.00 0.00 0.00 85 1014.3
20260903223028 67 232 8.0 18.0 0.00 0.00 0.00 86 1014.7
20260903221531 67 257 5.0 18.0 0.00 0.00 0.00 87 1015.2
20260903220033 66 239 5.0 14.0 0.00 0.00 0.00 87 1015.5
20260903214536 66 228 4.0 13.0 0.00 0.00 0.00 87 1015.4
20260903213032 66 265 0.0 6.0 0.00 0.00 0.00 87 1015.8
20260903211529 65 265 2.0 7.0 0.00 0.00 0.00 88 1016.1
20260903210031 65 265 1.0 8.0 0.00 0.00 0.00 88 1016.1